Content
SEND FEEDBACK

Daily
Averages
Monthly
Summary
French Polynesia

PAPEETE, FRENCH POLYNESIA


Home > Oceania > French Polynesia
Elevation: 7 feet     Latitude: 17 33S     Longitude: 149 36W

WEATHER
 
SELECT A DAY
Number of Records: 208,679;   Date Range: 6/30/96 - 8/10/14
 
SHARE

PRINT THIS DATA

[ ← Previous Day ]
WEATHER ALMANAC - JULY 1, 2013
[ Next Day → ]
[ °C ]   °F
We're sorry. There is no daily almanac available for Papeete, French Polynesia on July 1, 2013.
WEATHER BY HOUR - JULY 1, 2013
[ °C ]   °F
Local TimeTemperatureDewpointHumidityBarometerVisibilityWind DirectionWind SpeedGust SpeedPrecipitationEventsConditions
12:30 AM75.2 °F68.0 °F78 %29.98 in6.2 miVariable2.3 mphPartly Cloudy
1:00 AM73.4 °F68.0 °F83 %29.98 in6.2 miEast (90°)3.5 mphPartly Cloudy
1:30 AM73.4 °F68.0 °F83 %29.95 in6.2 miSSE (160°)3.5 mphPartly Cloudy
2:00 AM73.0 °F68.0 °F80 %29.96 in12.0 miSSE (160°)3.5 mphScattered Clouds
2:00 AM73.4 °F68.0 °F83 %29.95 in6.2 miSSE (160°)3.5 mphPartly Cloudy
2:30 AM73.4 °F68.0 °F83 %29.95 in6.2 miVariable2.3 mphPartly Cloudy
3:00 AM75.2 °F68.0 °F78 %29.95 in6.2 miSE (140°)4.6 mphMostly Cloudy
3:30 AM75.2 °F66.2 °F73 %29.92 in6.2 miENE (70°)4.6 mphMostly Cloudy
4:00 AM75.2 °F66.2 °F73 %29.92 in6.2 miEast (100°)3.5 mphMostly Cloudy
4:30 AM75.2 °F66.2 °F73 %29.92 in6.2 miEast (100°)3.5 mphOvercast
5:00 AM74.0 °F66.0 °F70 %29.94 in37.0 miSSE (150°)1.2 mphClear
5:00 AM73.4 °F66.2 °F78 %29.92 in6.2 miVariable1.2 mphOvercast
5:30 AM73.4 °F66.2 °F78 %29.95 in6.2 miSouth (170°)3.5 mphMostly Cloudy
6:00 AM73.4 °F66.2 °F78 %29.95 in6.2 miSSE (160°)5.8 mphPartly Cloudy
6:30 AM73.4 °F66.2 °F78 %29.95 in6.2 miVariable2.3 mphPartly Cloudy
7:00 AM73.4 °F68.0 °F83 %29.95 in6.2 miSE (140°)1.2 mphPartly Cloudy
7:30 AM73.4 °F68.0 °F83 %29.98 in6.2 miSSE (160°)3.5 mphScattered Clouds
8:00 AM76.0 °F69.0 °F72 %29.98 in12.0 miSSE (160°)2.3 mphPartly Cloudy
8:00 AM75.2 °F68.0 °F78 %29.98 in6.2 miSSE (160°)2.3 mphScattered Clouds
8:30 AM78.8 °F69.8 °F74 %29.98 in6.2 miCalmPartly Cloudy
9:00 AM80.6 °F69.8 °F70 %29.98 in6.2 miNNW (340°)2.3 mphScattered Clouds
9:30 AM82.4 °F69.8 °F66 %29.98 in6.2 miNNW (330°)3.5 mphPartly Cloudy
10:00 AM82.4 °F69.8 °F66 %29.95 in6.2 miVariable3.5 mphPartly Cloudy
10:30 AM84.2 °F69.8 °F62 %29.95 in6.2 miNW (320°)3.5 mphPartly Cloudy
11:00 AM84.0 °F71.0 °F56 %29.96 in19.0 miNNW (330°)8.9 mphScattered Clouds
11:00 AM84.2 °F71.6 °F66 %29.95 in6.2 miNNW (330°)4.6 mphPartly Cloudy
11:30 AM84.2 °F69.8 °F62 %29.92 in6.2 miWNW (290°)5.8 mphPartly Cloudy
12:00 PM84.2 °F69.8 °F62 %29.92 in6.2 miWSW (240°)5.8 mphPartly Cloudy
12:30 PM84.2 °F69.8 °F62 %29.89 in6.2 miSW (230°)9.2 mphPartly Cloudy
1:00 PM84.2 °F69.8 °F62 %29.89 in6.2 miSSW (210°)9.2 mphPartly Cloudy
1:30 PM82.4 °F69.8 °F66 %29.89 in6.2 miSSW (210°)10.4 mphScattered Clouds
2:00 PM83.0 °F68.0 °F53 %29.89 in16.0 miSSW (200°)10.4 mphPartly Cloudy
2:00 PM84.2 °F68.0 °F58 %29.89 in6.2 miSSW (200°)10.4 mphPartly Cloudy
2:30 PM82.4 °F69.8 °F66 %29.89 in6.2 miSW (220°)8.1 mphPartly Cloudy
3:00 PM82.4 °F69.8 °F66 %29.86 in6.2 miSW (230°)6.9 mphPartly Cloudy
3:30 PM82.4 °F69.8 °F66 %29.86 in6.2 miSW (220°)9.2 mphPartly Cloudy
4:00 PM80.6 °F69.8 °F70 %29.86 in6.2 miSW (220°)9.2 mphScattered Clouds
4:30 PM80.6 °F69.8 °F70 %29.86 in6.2 miSW (230°)9.2 mphPartly Cloudy
5:00 PM81.0 °F71.0 °F64 %29.89 in12.0 miWSW (240°)17.9 mphScattered Clouds
5:00 PM80.6 °F71.6 °F74 %29.89 in6.2 miWSW (240°)9.2 mphPartly Cloudy
5:30 PM80.6 °F71.6 °F74 %29.89 in6.2 miWest (260°)5.8 mphScattered Clouds
6:00 PM80.6 °F71.6 °F74 %29.89 in6.2 miWest (270°)5.8 mphScattered Clouds
6:30 PM78.8 °F71.6 °F78 %29.92 in6.2 miWest (280°)3.5 mphPartly Cloudy
7:00 PM78.8 °F69.8 °F74 %29.92 in6.2 miEast (100°)3.5 mphScattered Clouds
7:30 PM77.0 °F69.8 °F78 %29.92 in6.2 miEast (90°)3.5 mphPartly Cloudy
8:00 PM76.0 °F70.0 °F76 %29.94 in12.0 miEast (80°)6.7 mphScattered Clouds
8:00 PM77.0 °F69.8 °F78 %29.92 in6.2 miEast (80°)3.5 mphPartly Cloudy
8:30 PM75.2 °F69.8 °F83 %29.92 in6.2 miENE (70°)2.3 mphPartly Cloudy
9:00 PM75.2 °F69.8 °F83 %29.92 in6.2 miVariable2.3 mphPartly Cloudy
9:30 PM75.2 °F69.8 °F83 %29.92 in6.2 miEast (90°)2.3 mphPartly Cloudy
10:00 PM75.2 °F68.0 °F78 %29.92 in6.2 miVariable3.5 mphPartly Cloudy
10:30 PM75.2 °F68.0 °F78 %29.92 in6.2 miCalmPartly Cloudy
11:00 PM74.0 °F67.0 °F73 %29.91 in12.0 miCalmScattered Clouds
11:00 PM73.4 °F68.0 °F83 %29.89 in6.2 miCalmPartly Cloudy
11:30 PM73.4 °F66.2 °F78 %29.89 in6.2 miSouth (170°)2.3 mphPartly Cloudy
Hourly data recorded from NTAA, located miles away from Papeete, French Polynesia







STORIES FROM OUR PARTNERS